Regional Weather Roundup
Issued by NWS Albany, NY

Current Version | Previous Version | Text Only | Print | Product List | Glossary On
Versions: 1 2 3 4 5 6 7 8 9 10 11 12 13 14 15 16 17 18 19 20 21 22 23 24 25
296 ASUS41 KALY 221810 RWRALY NEW YORK STATE HOURLY WEATHER ROUNDUP NATIONAL WEATHER SERVICE ALBANY NY 200 PM EDT FRI MAY 22 2015 NOTE: "FAIR" INDICATES FEW OR NO CLOUDS BELOW 12,000 FEET WITH NO SIGNIFICANT WEATHER AND/OR NO OBSTRUCTIONS TO VISIBILITY. NYZ032-033-038>043-046>054-057>066-NYZ062>081-221900- EAST CITY SKY/WX TMP DP RH WIND PRES REMARKS ALBANY MOSUNNY 67 31 26 W21G26 29.91R GLENS FALLS PTSUNNY 66 29 24 W12G17 29.88S POUGHKEEPSIE PTSUNNY 72 36 26 W17G30 29.89R NEWBURGH PTSUNNY 66 41 39 NW17G35 29.92S MONTGOMERY MOSUNNY 69 40 34 W15G26 29.91S WHITE PLAINS MOSUNNY 71 38 29 NW21G32 29.90S ISLIP PTSUNNY 72 39 30 W17G25 29.89S NEW YORK CITY PTSUNNY 74 37 26 W21G31 29.90F CENTRAL PARK PTSUNNY 72 37 28 VRB5G22 29.93S $$ NYZ005>009-017-018-044>046-055-056-221900- CENTRAL CITY SKY/WX TMP DP RH WIND PRES REMARKS FULTON MOSUNNY 57 33 40 NW13G20 30.04R SYRACUSE MOSUNNY 60 29 30 NW18G25 30.02R ROME PTSUNNY 60 31 33 NW20G30 30.00R ELMIRA MOSUNNY 64 31 28 NW9G23 29.99R BINGHAMTON PTSUNNY 58 32 37 NW13G22 29.99R MONTICELLO PTSUNNY 63 37 39 NW18G25 29.96R $$ NYZ026>034-041>043-221900- NORTH CITY SKY/WX TMP DP RH WIND PRES REMARKS WATERTOWN PTSUNNY 56 36 47 W16 30.02R FORT DRUM NOT AVBL MASSENA MOSUNNY 55 30 38 W17G32 30.00R SARANAC LAKE PTSUNNY 50 23 34 NW10G21 29.92R PLATTSBURGH PTSUNNY 57 26 30 NW13G30 29.92R $$ NYZ001>004-010>016-019>021-221900- WEST CITY SKY/WX TMP DP RH WIND PRES REMARKS NIAGARA FALLS MOSUNNY 60 34 37 NW14 30.07S BUFFALO PTSUNNY 56 39 53 SW15G22 30.08R DUNKIRK LGT RAIN 55 35 47 W16 30.12R JAMESTOWN SUNNY 54 30 40 SW15G26 30.11R WELLSVILLE SUNNY 59 21 23 NW20G29 30.05R ROCHESTER MOSUNNY 59 30 33 N13G22 30.06R PENN YAN MOSUNNY 60 33 36 W10 30.02R $$ KEY WCI = WIND CHILL INDEX VSB = VISIBILITY HX = HEAT INDEX $$

USA.gov is the U.S. government's official web portal to all federal, state and local government web resources and services.